Theta_e
309 311 313 313 314 314 316 315 316 315 315 314 314 314 313 312 311 310 310 312 313 314 313 314 314 313 313 313 312 312 311 310 308 306 305 304 304 304 305 305 306 306 307 307
309 308 309 311 312 313 314 314 314 314 314 313 312 312 312 312 311 311 311 310 311 312 313 313 313 313 313 313 312 311 310 309 306 304 303 302 302 303 302 302 304 305 305 305
313 307 308 310 309 310 311 312 313 314 313 312 312 311 311 311 311 310 311 311 311 310 311 312 313 313 313 312 311 310 309 306 304 303 301 301 301 301 300 301 302 303 304 304
312 308 312 307 305 307 309 309 309 311 311 310 311 311 310 310 310 310 310 310 310 311 310 311 312 313 312 311 310 309 307 304 303 302 301 300 300 300 300 301 301 301 302 302
312 311 309 310 309 309 310 312 309 311 312 312 311 310 311 309 308 307 309 310 309 309 310 310 312 312 311 311 310 308 305 303 302 300 300 300 300 300 300 300 300 299 301 300
309 311 310 309 309 307 308 313 309 309 309 311 310 313 313 308 307 307 307 309 310 309 307 309 311 311 311 311 309 307 304 303 302 300 300 300 299 299 299 299 298 299 298 294
311 310 309 307 306 306 312 311 306 306 307 308 310 311 310 307 307 308 308 309 309 308 308 310 311 311 311 310 308 304 303 302 301 300 300 299 299 299 298 298 297 297 294 290
310 311 310 305 308 310 305 302 301 301 303 304 306 308 308 307 308 308 308 309 309 308 309 310 310 310 310 309 305 303 303 302 301 300 299 299 299 299 298 297 297 293 289 289
309 309 304 303 305 302 298 298 299 298 299 302 302 306 308 308 308 308 309 309 310 309 309 310 309 309 308 306 304 303 303 303 301 300 299 299 299 298 298 298 294 290 289 289
308 305 301 301 302 299 299 299 298 297 299 300 299 301 306 309 309 309 310 309 309 309 309 309 308 307 305 304 303 303 302 302 301 300 299 299 298 299 299 294 291 290 290 289
303 303 301 302 301 299 298 298 297 297 299 299 299 299 302 308 309 310 311 310 311 311 310 309 308 306 304 304 303 302 302 301 301 300 299 300 299 299 296 291 290 290 290 289
302 300 298 299 298 298 298 298 298 298 298 298 298 297 301 308 309 310 310 311 311 311 311 311 311 309 307 305 304 304 302 301 300 300 300 299 299 298 293 291 290 290 290 290
298 298 297 297 297 297 297 298 298 298 298 298 300 298 301 307 308 308 309 310 310 310 310 310 310 310 309 307 306 305 303 301 300 299 299 298 298 295 292 291 291 290 290 290
297 297 296 296 296 297 297 297 297 296 297 297 299 301 303 305 307 308 308 308 307 307 307 307 307 307 308 308 307 306 305 304 301 299 298 297 296 295 293 292 291 291 291 290
297 296 295 295 296 296 296 295 297 298 298 299 299 302 302 303 304 305 305 305 304 304 305 304 304 305 305 306 306 306 306 305 305 303 300 298 296 295 294 293 292 291 291 290
296 295 295 295 295 295 296 295 296 297 297 299 299 300 301 302 301 303 304 304 304 304 304 304 304 303 303 304 304 305 305 305 304 304 302 300 299 297 295 293 292 291 291 292
294 294 295 295 294 294 295 294 294 295 295 296 297 298 300 300 300 301 303 303 302 303 302 302 303 302 302 302 303 304 304 304 304 304 303 303 301 300 299 299 300 298 296 294
292 292 294 294 293 294 294 294 293 294 295 295 295 296 296 298 298 298 300 301 300 301 300 301 301 301 301 302 303 303 303 303 303 303 303 303 302 302 302 301 300 299 299 297
292 291 290 293 293 293 292 293 293 292 294 294 295 295 295 295 295 296 297 299 299 299 299 299 299 299 300 300 301 302 303 303 303 302 303 302 301 301 301 300 300 299 298 298
292 291 290 292 294 293 293 292 292 288 290 291 291 292 293 293 293 293 294 296 297 297 297 298 298 298 299 299 299 300 301 301 301 301 301 300 300 300 299 298 298 297 297 297
292 291 291 292 293 293 293 292 292 292 289 289 289 289 289 289 290 290 292 293 294 294 295 296 297 298 297 298 299 298 298 298 299 299 298 298 298 297 297 296 296 295 295 295
292 291 290 292 292 293 293 292 291 290 289 288 288 288 288 288 288 289 289 291 290 291 293 294 295 295 296 297 297 298 298 298 298 297 297 297 296 296 295 294 294 294 294 293
291 290 289 290 291 292 293 292 291 290 288 287 288 289 292 292 289 288 288 288 288 289 290 292 293 295 296 295 296 297 297 297 297 296 296 295 295 294 293 293 292 292 292 292
290 290 290 290 290 291 292 292 291 291 290 291 290 287 290 289 289 288 288 288 288 288 289 290 292 294 294 294 294 294 294 295 295 294 294 293 293 292 292 292 291 291 291 291
288 288 289 290 290 290 291 292 290 290 290 290 290 290 288 288 289 289 288 287 287 287 288 288 290 292 292 293 293 292 292 293 293 293 293 292 291 291 291 291 291 291 291 291
288 288 287 287 289 291 291 291 290 290 290 288 286 287 288 286 286 286 286 286 286 287 287 287 288 288 289 290 291 292 292 293 293 292 292 291 291 291 291 291 291 291 291 291
288 288 288 288 287 288 290 292 291 290 289 290 289 288 286 286 286 286 285 285 286 286 286 286 286 287 287 288 288 289 291 292 292 292 291 291 291 292 291 291 291 291 291 290
Wind_Speed
4 4 2 2 10 15 15 19 13 18 18 19 15 15 23 26 22 16 13 15 18 20 21 23 23 22 21 20 19 19 19 19 20 20 19 19 17 17 17 16 16 15 14 14
2 2 2 4 9 10 15 19 19 23 23 19 25 18 18 20 20 20 20 16 19 20 24 26 26 25 23 21 20 19 19 19 19 18 16 15 16 15 15 15 14 13 12 10
2 2 3 6 9 11 7 8 10 17 20 16 16 20 22 24 23 22 20 21 20 25 28 28 28 26 24 21 20 20 19 18 17 16 14 13 14 13 14 14 14 12 11 9
2 4 4 3 2 2 7 7 9 13 15 15 16 20 25 26 24 25 23 20 18 21 26 30 30 27 24 23 21 20 19 18 17 15 13 13 13 13 13 13 12 11 11 10
2 2 5 3 2 1 1 5 3 5 10 15 19 20 18 8 13 18 22 20 18 20 23 27 30 28 25 23 21 20 19 17 15 14 12 11 11 12 13 14 13 11 11 12
2 1 2 2 1 1 2 5 13 13 14 16 17 9 11 20 25 20 13 16 20 18 20 24 27 28 26 23 21 20 18 16 14 13 12 11 12 13 14 13 12 12 14 13
4 3 3 3 4 3 4 3 15 14 16 17 10 15 28 26 22 17 13 13 16 14 16 21 25 25 23 21 20 17 16 16 15 14 14 14 14 15 15 14 14 15 15 13
2 4 3 11 2 4 4 9 13 17 16 21 22 23 22 22 19 14 10 9 10 11 15 18 20 20 20 19 16 17 16 16 15 15 16 16 15 16 16 16 17 17 16 14
3 2 5 9 2 5 9 15 16 20 22 20 23 23 21 22 18 13 7 4 4 7 10 14 16 17 18 16 16 16 16 13 15 16 17 18 18 18 19 19 18 18 16 14
4 4 8 9 7 7 17 18 20 19 20 20 23 26 24 20 17 12 9 6 5 6 8 10 13 15 16 16 15 14 12 15 16 17 18 20 20 19 19 19 19 18 17 15
5 6 17 3 12 24 27 23 19 18 21 24 24 27 24 21 17 13 9 7 6 5 4 5 8 11 15 15 15 15 15 16 16 17 19 20 20 19 19 19 18 16 15 15
3 4 13 23 23 26 24 23 25 26 29 24 21 25 23 21 17 17 16 13 14 13 11 10 10 11 14 15 15 12 13 15 17 18 19 20 20 20 20 20 20 19 18 17
8 12 20 25 25 20 20 32 32 30 28 31 29 23 22 21 19 20 19 19 17 16 15 16 16 16 17 18 19 19 18 14 15 17 20 20 21 21 21 20 20 20 20 19
14 12 16 12 15 22 20 24 25 28 28 26 25 24 21 19 19 18 17 17 17 17 17 18 19 19 18 18 20 20 20 16 17 16 20 20 21 21 20 21 21 20 19 18
8 14 20 23 21 21 21 21 22 20 20 19 18 18 17 18 18 17 16 17 17 17 17 18 19 18 19 20 21 21 23 23 22 21 20 22 22 22 22 22 22 22 21 21
15 16 15 15 20 20 20 20 19 20 20 18 17 17 18 17 17 16 15 17 18 18 18 19 19 17 20 21 21 23 24 24 24 24 24 24 24 25 25 25 25 25 24 22
16 13 14 20 20 21 21 19 17 17 16 15 17 19 19 21 19 14 12 14 15 16 17 17 16 18 19 19 21 22 23 23 23 24 24 25 26 27 28 29 30 31 32 30
18 19 20 21 23 22 20 17 17 15 13 13 13 11 11 10 13 11 8 10 12 11 11 12 12 13 15 16 17 20 21 21 22 22 21 22 23 24 26 28 30 30 31 32
20 22 22 20 21 22 22 19 16 13 11 11 9 8 7 8 10 9 7 8 8 8 8 8 9 9 10 12 14 15 17 19 20 21 21 20 21 23 24 26 28 29 30 31
22 22 22 22 20 20 22 20 17 15 11 10 9 7 6 8 10 11 9 8 8 7 7 7 7 8 8 9 10 12 13 15 16 18 19 20 21 22 23 24 24 25 26 26
25 24 24 22 20 20 21 21 19 18 12 9 9 7 7 6 8 8 7 8 10 11 10 8 8 8 8 9 11 12 12 13 14 15 16 18 19 21 22 23 23 23 23 23
25 25 24 19 20 22 20 20 19 15 13 10 7 4 4 6 8 7 5 5 7 8 9 9 10 11 11 10 9 10 11 13 14 15 16 17 18 19 20 21 21 21 21 20
23 23 22 18 20 21 21 18 17 18 13 10 8 7 7 7 8 7 6 7 7 7 7 6 6 8 9 9 10 10 10 11 12 13 14 14 16 16 17 17 17 17 17 16
21 22 23 20 19 20 21 19 17 18 19 18 9 2 3 4 6 8 7 7 7 7 6 5 5 5 6 6 5 7 8 9 10 11 12 12 13 14 14 14 14 13 13 14
22 22 23 22 19 18 18 17 18 19 17 14 11 6 4 5 6 6 9 6 6 7 6 6 5 4 4 4 5 5 6 7 7 9 10 10 10 11 12 13 13 12 13 14
18 21 22 21 19 17 18 18 18 19 16 10 5 6 6 6 4 4 4 5 5 5 6 5 5 5 4 4 5 5 5 5 6 6 7 7 9 10 10 11 12 13 11 10
16 20 22 23 20 19 18 19 18 17 17 14 11 6 5 5 4 3 3 4 5 5 5 6 6 6 6 5 5 5 4 5 6 6 6 7 7 7 8 8 9 9 9 10
Wind_Direction
91 99 142 222 216 215 216 234 246 261 265 266 279 293 292 293 291 296 279 240 221 211 211 212 216 219 223 231 242 252 261 269 273 273 268 261 255 250 246 245 246 250 252 254
76 42 254 258 240 239 238 247 249 256 268 281 286 292 293 294 293 291 271 253 235 226 222 223 224 226 231 238 245 255 262 267 269 266 265 252 248 250 250 245 243 241 246 242
173 304 266 251 245 229 237 254 258 253 263 291 300 302 301 298 290 281 280 271 248 240 235 231 229 230 234 240 247 253 259 263 261 259 257 253 251 249 246 241 240 241 237 219
158 224 228 84 205 212 229 265 250 263 280 297 306 305 297 294 283 275 262 259 255 251 242 236 232 232 233 237 245 253 256 254 252 248 245 246 244 237 231 228 232 229 216 197
216 228 317 101 100 96 16 72 70 337 334 327 324 313 314 334 331 305 266 258 268 255 247 237 233 230 233 238 245 249 250 247 246 238 236 236 227 219 218 218 223 214 196 187
176 238 256 88 101 143 221 168 20 348 332 331 331 319 326 331 321 317 290 259 271 269 238 229 228 227 228 235 243 246 243 241 240 233 231 222 215 210 211 214 215 201 187 183
203 246 272 4 349 170 234 52 349 351 342 329 314 305 304 314 318 318 296 258 263 256 225 222 223 223 225 237 244 242 237 235 232 228 224 216 213 210 211 212 207 193 190 192
212 231 234 10 145 317 20 347 335 334 333 330 323 313 320 320 322 320 302 280 259 239 223 219 218 220 229 238 237 234 233 231 228 223 218 212 210 210 211 207 198 195 196 199
251 33 57 355 342 99 358 329 323 320 319 321 321 322 318 320 313 310 304 282 239 216 215 215 219 226 233 232 230 230 229 233 231 220 213 209 210 209 207 200 199 199 204 210
313 105 340 315 172 324 327 318 312 309 308 313 312 319 312 313 302 297 285 260 228 215 220 231 233 233 229 227 227 226 239 231 223 215 209 208 210 208 204 204 203 207 213 219
269 294 331 187 304 322 320 321 316 310 306 303 305 302 313 299 288 271 273 242 196 191 210 250 244 246 238 236 231 226 226 229 223 215 213 211 211 209 209 209 212 217 222 228
259 266 289 285 301 308 309 314 316 311 310 307 302 295 301 286 277 268 257 239 245 242 238 232 242 247 238 232 230 220 235 234 226 220 217 213 213 213 213 213 218 224 228 233
270 292 286 285 294 296 297 309 307 303 299 300 301 295 286 278 269 261 264 256 251 251 250 252 254 251 247 241 234 227 214 223 241 233 228 224 221 221 221 223 230 234 235 237
283 287 293 294 289 302 306 306 306 304 299 295 296 295 281 272 264 256 251 252 250 251 253 255 256 255 252 249 240 236 226 208 226 235 239 232 230 232 233 235 241 245 244 246
251 285 284 294 302 301 305 312 319 317 319 308 302 294 280 269 260 253 249 251 255 258 259 259 259 258 253 248 244 243 238 230 227 232 234 235 234 232 236 241 245 249 248 247
294 296 305 297 307 306 311 324 322 317 312 308 303 291 275 271 261 250 251 258 259 261 260 258 258 255 252 248 244 241 242 242 244 243 239 236 237 239 243 244 246 248 250 252
299 301 308 306 311 315 316 318 316 318 320 310 291 282 271 272 257 252 253 269 269 263 260 259 255 250 251 249 245 242 241 242 243 246 244 243 244 246 249 250 249 247 247 245
305 298 298 301 308 307 312 314 315 314 318 318 314 300 293 272 263 249 252 271 269 263 260 259 256 251 248 247 245 243 240 239 241 246 248 250 252 254 255 257 260 260 261 261
313 309 310 304 309 307 307 308 309 310 310 316 322 321 322 312 297 294 284 272 266 255 258 264 260 255 247 243 243 243 240 239 240 244 250 254 255 257 259 261 263 266 266 265
321 313 308 304 307 307 307 307 303 305 308 311 310 309 321 313 306 299 281 267 261 258 256 262 260 255 250 246 242 240 238 239 242 245 250 255 259 264 269 269 269 268 267 265
326 320 314 306 301 303 302 305 304 290 295 293 305 315 332 328 317 312 293 276 269 269 269 266 268 267 258 253 255 251 248 246 246 250 254 259 263 267 269 269 268 267 266 265
328 325 317 311 301 301 302 300 292 295 286 286 285 305 341 345 328 322 322 307 302 294 277 274 265 262 261 263 265 260 254 253 254 256 258 262 268 270 270 270 270 269 267 265
328 330 321 310 301 301 300 295 293 275 270 283 278 276 297 308 345 333 327 317 318 312 302 291 280 269 266 267 251 251 255 255 257 258 259 269 273 272 272 272 271 267 265 264
329 335 332 319 299 296 295 295 290 290 273 257 269 220 271 315 317 307 310 317 325 329 327 317 307 293 288 285 271 264 262 259 261 266 271 271 272 272 272 270 267 266 263 259
327 329 331 336 329 320 305 310 285 285 283 260 246 229 240 252 256 274 295 313 327 334 341 343 333 317 310 307 296 289 283 279 280 277 273 272 276 279 275 272 266 263 266 262
332 334 333 333 336 328 324 309 299 275 266 248 261 262 256 269 259 264 282 305 318 328 337 340 344 339 331 319 319 303 297 297 305 308 300 288 285 281 278 274 270 271 266 248
353 348 344 338 333 329 324 320 307 295 260 248 221 226 268 267 277 281 297 306 314 322 329 337 342 342 335 330 328 324 310 307 302 298 301 303 299 295 289 283 277 262 247 239